����,�O�C���x,�����t���O,�O�C���x,�����t���O,�󒲎����x,�����t���O,�󒲎����x,�����t���O,��󒲎����x,�����t���O,����,�����t���O
2003/5/1 0:00,14.1,0,72,0,22.4,0,56.7,0,19.8,0,18.5,0
2003/5/1 0:15,14.1,0,72,0,22.3,0,57,0,19.8,0,18.4,0
2003/5/1 0:30,14.1,0,73,0,22.2,0,57.3,0,19.7,0,18.4,0
2003/5/1 0:45,14.1,0,72,0,22.2,0,57.9,0,19.7,0,18.4,0
2003/5/1 1:00,13.9,0,74,0,22.1,0,57.9,0,19.6,0,18.4,0
2003/5/1 1:15,13.9,0,74,0,22,0,58,0,19.6,0,18.5,0
2003/5/1 1:30,13.7,0,73,0,21.9,0,58,0,19.5,0,18.5,0
2003/5/1 1:45,13.5,0,73,0,21.8,0,58,0,19.5,0,18.5,0
2003/5/1 2:00,13.4,0,73,0,21.7,0,58.6,0,19.5,0,18.5,0
2003/5/1 2:15,13.2,0,74,0,21.7,0,59.8,0,19.5,0,18.6,0
2003/5/1 2:30,13.2,0,75,0,21.6,0,60.2,0,19.6,0,18.6,0
2003/5/1 2:45,13.2,0,80,0,21.5,0,60.2,0,19.6,0,18.6,0
2003/5/1 3:00,13.2,0,80,0,21.5,0,60.1,0,19.6,0,18.6,0
2003/5/1 3:15,13.2,0,80,0,21.4,0,60.2,0,19.6,0,18.6,0
2003/5/1 3:30,13.2,0,79,0,21.3,0,60.2,0,19.5,0,18.7,0
2003/5/1 3:45,13.2,0,79,0,21.2,0,60.2,0,19.5,0,18.7,0
2003/5/1 4:00,13.1,0,80,0,21.2,0,60.2,0,19.5,0,18.7,0
2003/5/1 4:15,13.1,0,80,0,21.1,0,59.8,0,19.5,0,18.3,0
2003/5/1 4:30,13,0,80,0,21,0,59.8,0,19.4,0,18.3,0
2003/5/1 4:45,13,0,80,0,20.9,0,59.7,0,19.4,0,18.4,0
2003/5/1 5:00,13,0,80,0,20.8,0,59.7,0,19.3,0,18.4,0
2003/5/1 5:15,13,0,81,0,20.7,0,59.7,0,19.3,0,18.4,0
2003/5/1 5:30,12.9,0,82,0,20.6,0,59.7,0,19.2,0,18.4,0
2003/5/1 5:45,12.6,0,82,0,20.5,0,59.7,0,19.2,0,18.5,0
2003/5/1 6:00,12.3,0,84,0,20.5,0,60,0,19.1,0,18.5,0
2003/5/1 6:15,12.2,0,86,0,20.4,0,60.3,0,19.1,0,18.5,0
2003/5/1 6:30,12.6,0,84,0,20.4,0,60.4,0,19.1,0,18.5,0
2003/5/1 6:45,12.9,0,84,0,20.2,0,60.9,0,19.1,0,18.5,0
2003/5/1 7:00,13.2,0,81,0,20.2,0,61.3,0,19,0,18.5,0
2003/5/1 7:15,13.6,0,78,0,20.2,0,61.8,0,19.1,0,18.5,0
2003/5/1 7:30,13.6,0,79,0,20.3,0,61.7,0,19.1,0,18.5,0
2003/5/1 7:45,14.2,0,78,0,20.4,0,61.3,0,19.1,0,18.4,0
2003/5/1 8:00,14.7,0,74,0,20.4,0,61.1,0,19.1,0,18.2,0
2003/5/1 8:15,14.9,0,72,0,20.5,0,60.6,0,19.2,0,18.2,0
2003/5/1 8:30,15.7,0,68,0,20.5,0,60.8,0,19.2,0,18.3,0
2003/5/1 8:45,16.4,0,65,0,20.6,0,60.7,0,19.3,0,18.3,0
2003/5/1 9:00,17.4,0,62,0,20.7,0,60.8,0,19.3,0,18.3,0
2003/5/1 9:15,19,0,56,0,20.7,0,60.7,0,19.4,0,18.3,0
2003/5/1 9:30,20.2,0,52,0,20.8,0,60.8,0,19.5,0,18.3,0
2003/5/1 9:45,21.7,0,49,0,20.8,0,60.8,0,19.5,0,18.4,0
2003/5/1 10:00,22.6,0,44,0,20.9,0,60.8,0,19.6,0,18.4,0
2003/5/1 10:15,23.3,0,41,0,20.9,0,60.8,0,19.6,0,18.4,0
2003/5/1 10:30,24.6,0,39,0,21,0,60.8,0,19.7,0,18.5,0
2003/5/1 10:45,24.3,0,37,0,21,0,60.7,0,19.7,0,18.3,0
2003/5/1 11:00,24.4,0,35,0,21.1,0,60.7,0,19.8,0,18.4,0
2003/5/1 11:15,25.4,0,34,0,21.1,0,60.6,0,19.8,0,18.4,0
2003/5/1 11:30,24.4,0,34,0,21.2,0,60.4,0,19.8,0,18.4,0
2003/5/1 11:45,24.2,0,33,0,21.3,0,60.4,0,19.8,0,18.5,0
2003/5/1 12:00,24.4,0,35,0,21.3,0,60.4,0,19.8,0,18.5,0
2003/5/1 12:15,24.4,0,32,0,21.4,0,60.6,0,19.9,0,18.5,0
2003/5/1 12:30,24.7,0,28,0,21.4,0,60.4,0,19.9,0,18.6,0
2003/5/1 12:45,25.1,0,29,0,21.5,0,60.4,0,19.9,0,18.6,0
2003/5/1 13:00,24.8,0,24,0,21.6,0,60.2,0,19.9,0,18.6,0
2003/5/1 13:15,25,0,27,0,21.7,0,60.4,0,20,0,18.4,0
2003/5/1 13:30,25.1,0,34,0,21.8,0,60.3,0,20,0,18.5,0
2003/5/1 13:45,24.3,0,39,0,21.9,0,60.4,0,20.1,0,18.5,0
2003/5/1 14:00,24,0,41,0,22,0,60.3,0,20.2,0,18.6,0
2003/5/1 14:15,24,0,40,0,22.1,0,60.5,0,20.3,0,18.6,0
2003/5/1 14:30,23.8,0,41,0,22.2,0,60.4,0,20.3,0,18.7,0
2003/5/1 14:45,23.9,0,38,0,22.2,0,60.4,0,20.4,0,18.7,0
2003/5/1 15:00,24,0,39,0,22.3,0,60.5,0,20.4,0,18.7,0
2003/5/1 15:15,23.9,0,40,0,22.4,0,60.6,0,20.5,0,18.8,0
2003/5/1 15:30,24,0,41,0,22.5,0,60.7,0,20.5,0,18.8,0
2003/5/1 15:45,23.4,0,44,0,22.6,0,60.7,0,20.5,0,18.9,0
2003/5/1 16:00,23.1,0,44,0,22.6,0,60.5,0,20.6,0,18.9,0
2003/5/1 16:15,22.5,0,46,0,22.7,0,60.6,0,20.6,0,18.9,0
2003/5/1 16:30,22.7,0,45,0,22.7,0,60.6,0,20.6,0,19,0
2003/5/1 16:45,22.4,0,45,0,22.8,0,60.6,0,20.6,0,19,0
2003/5/1 17:00,22.5,0,46,0,22.8,0,60.6,0,20.7,0,19.1,0
2003/5/1 17:15,22,0,47,0,22.8,0,60.8,0,20.7,0,19.1,0
2003/5/1 17:30,21.9,0,47,0,22.9,0,61.7,0,20.7,0,19.1,0
2003/5/1 17:45,21.1,0,49,0,22.9,0,61.3,0,20.7,0,19.2,0
2003/5/1 18:00,21,0,49,0,22.9,0,61.2,0,20.7,0,19.2,0
2003/5/1 18:15,20.7,0,49,0,22.9,0,61,0,20.7,0,19.3,0
2003/5/1 18:30,20.4,0,51,0,22.9,0,60.8,0,20.7,0,18.7,0
2003/5/1 18:45,19.8,0,53,0,22.9,0,60.8,0,20.7,0,18.8,0
2003/5/1 19:00,19.3,0,56,0,23,0,60.8,0,20.7,0,18.8,0
2003/5/1 19:15,18.6,0,60,0,22.9,0,60.8,0,20.7,0,18.9,0
2003/5/1 19:30,18.4,0,61,0,23,0,60.7,0,20.6,0,18.9,0
2003/5/1 19:45,18.5,0,60,0,23.2,0,60.6,0,20.6,0,19,0
2003/5/1 20:00,18.6,0,59,0,23.3,0,60.9,0,20.6,0,19,0
2003/5/1 20:15,18.5,0,59,0,23.3,0,60.4,0,20.6,0,19.1,0
2003/5/1 20:30,17.9,0,61,0,23.4,0,60,0,20.6,0,19.1,0
2003/5/1 20:45,18,0,62,0,23.4,0,59.9,0,20.6,0,18.6,0
2003/5/1 21:00,18.2,0,62,0,23.4,0,59.8,0,20.6,0,18.7,0
2003/5/1 21:15,18,0,63,0,23.4,0,59.6,0,20.6,0,18.7,0
2003/5/1 21:30,17.9,0,64,0,23.4,0,59.4,0,20.6,0,18.8,0
2003/5/1 21:45,17.7,0,65,0,23.4,0,59.3,0,20.6,0,18.8,0
2003/5/1 22:00,17.5,0,65,0,23.4,0,59.3,0,20.6,0,18.8,0
2003/5/1 22:15,17.3,0,66,0,23.4,0,59.3,0,20.6,0,18.9,0
2003/5/1 22:30,16.8,0,69,0,23.4,0,59.3,0,20.6,0,18.9,0
2003/5/1 22:45,16.8,0,67,0,23.3,0,59.1,0,20.6,0,19,0
2003/5/1 23:00,17.1,0,64,0,23.3,0,59,0,20.6,0,19,0
2003/5/1 23:15,17,0,64,0,23.3,0,58.8,0,20.6,0,18.6,0
2003/5/1 23:30,16.9,0,65,0,23.3,0,58.9,0,20.5,0,18.5,0
2003/5/1 23:45,16.9,0,65,0,23.2,0,58.7,0,20.5,0,18.6,0
2003/5/2 0:00,16.9,0,64,0,23.1,0,58.6,0,20.5,0,18.7,0
2003/5/2 0:15,16.7,0,63,0,23.1,0,58.6,0,20.5,0,18.7,0
2003/5/2 0:30,16.5,0,62,0,23,0,58.9,0,20.4,0,18.8,0
2003/5/2 0:45,16.4,0,60,0,22.9,0,58.9,0,20.4,0,18.8,0
2003/5/2 1:00,16.5,0,58,0,22.8,0,58.3,0,20.4,0,18.8,0
2003/5/2 1:15,16.4,0,57,0,22.7,0,57.8,0,20.4,0,18.8,0
2003/5/2 1:30,16.3,0,60,0,22.5,0,57.4,0,20.3,0,18.9,0
2003/5/2 1:45,16.2,0,59,0,22.4,0,57.2,0,20.3,0,18.9,0
2003/5/2 2:00,16.3,0,56,0,22.3,0,56.9,0,20.2,0,18.9,0
2003/5/2 2:15,16.2,0,60,0,22.2,0,56.7,0,20.2,0,19,0
2003/5/2 2:30,16,0,61,0,22.1,0,56.6,0,20.1,0,19,0
2003/5/2 2:45,16,0,62,0,22,0,56.5,0,20.1,0,19,0
2003/5/2 3:00,15.8,0,62,0,22,0,56.4,0,20,0,19,0
2003/5/2 3:15,15.7,0,62,0,21.9,0,56.4,0,19.9,0,19.1,0
2003/5/2 3:30,15.7,0,64,0,21.8,0,56.2,0,19.9,0,19.1,0
2003/5/2 3:45,15.4,0,65,0,21.7,0,56.1,0,19.8,0,19.1,0
2003/5/2 4:00,15.2,0,68,0,21.6,0,56.3,0,19.8,0,19.1,0
2003/5/2 4:15,15,0,68,0,21.5,0,56.7,0,19.7,0,18.8,0
2003/5/2 4:30,15,0,67,0,21.5,0,57,0,19.7,0,18.8,0
2003/5/2 4:45,15,0,66,0,21.4,0,57.1,0,19.6,0,18.8,0
2003/5/2 5:00,15,0,65,0,21.4,0,57.3,0,19.6,0,18.8,0
2003/5/2 5:15,15,0,65,0,21.3,0,57.5,0,19.6,0,18.9,0
2003/5/2 5:30,15.1,0,65,0,21.2,0,57.8,0,19.5,0,18.9,0
2003/5/2 5:45,14.8,0,67,0,21.2,0,58.1,0,19.5,0,18.9,0
2003/5/2 6:00,14.9,0,68,0,21.1,0,58.3,0,19.5,0,18.9,0
2003/5/2 6:15,14.6,0,70,0,21,0,58.6,0,19.5,0,18.9,0
2003/5/2 6:30,14.5,0,72,0,20.9,0,59.1,0,19.5,0,19,0
2003/5/2 6:45,14.4,0,72,0,20.9,0,60,0,19.5,0,19,0
2003/5/2 7:00,14.9,0,70,0,20.9,0,60.6,0,19.5,0,19,0
2003/5/2 7:15,15.6,0,65,0,21,0,60.5,0,19.5,0,18.7,0
2003/5/2 7:30,16.2,0,67,0,20.5,0,57.9,0,19.5,0,18.7,0
2003/5/2 7:45,16.6,0,65,0,20.6,0,57.1,0,19.5,0,18.7,0
2003/5/2 8:00,17.1,0,64,0,20.6,0,57.3,0,19.6,0,18.6,0
2003/5/2 8:15,17.3,0,59,0,20.5,0,57.3,0,19.6,0,18.6,0
2003/5/2 8:30,18,0,57,0,20.8,0,58,0,19.7,0,18.6,0
2003/5/2 8:45,19,0,54,0,21,0,57.9,0,19.8,0,18.7,0
2003/5/2 9:00,20.1,0,49,0,21.1,0,57.5,0,19.9,0,18.7,0
2003/5/2 9:15,22,0,46,0,21.2,0,57.2,0,20,0,18.7,0
2003/5/2 9:30,23.1,0,41,0,21.3,0,57,0,20.1,0,18.8,0
2003/5/2 9:45,24.2,0,37,0,21.3,0,56.8,0,20.2,0,18.8,0
2003/5/2 10:00,24.9,0,36,0,21.4,0,56.6,0,20.2,0,18.8,0
2003/5/2 10:15,26,0,33,0,21.5,0,56.3,0,20.3,0,18.9,0
2003/5/2 10:30,26.8,0,32,0,21.5,0,56,0,20.4,0,18.9,0
2003/5/2 10:45,27.2,0,30,0,21.6,0,55.8,0,20.5,0,18.9,0
2003/5/2 11:00,28,0,28,0,21.7,0,55.7,0,20.5,0,18.9,0
2003/5/2 11:15,28.2,0,28,0,21.8,0,56.2,0,20.6,0,19,0
2003/5/2 11:30,27,0,27,0,21.8,0,55.7,0,20.6,0,19,0
2003/5/2 11:45,26.8,0,29,0,21.9,0,55.1,0,20.7,0,19.1,0
2003/5/2 12:00,26.9,0,28,0,21.9,0,54.8,0,20.7,0,18.8,0
2003/5/2 12:15,26.7,0,27,0,22,0,55.1,0,20.7,0,18.8,0
2003/5/2 12:30,26.7,0,28,0,22,0,55.3,0,20.8,0,18.9,0
2003/5/2 12:45,26.5,0,27,0,22.1,0,55.6,0,20.8,0,18.9,0
2003/5/2 13:00,26.6,0,26,0,22.2,0,56.2,0,20.8,0,18.9,0
2003/5/2 13:15,26.7,0,25,0,22.3,0,56.2,0,20.9,0,19,0
2003/5/2 13:30,26.6,0,21,0,22.4,0,56.4,0,20.9,0,19,0
2003/5/2 13:45,26.6,0,20,0,22.5,0,56.4,0,21,0,19,0
2003/5/2 14:00,26.9,0,32,0,22.6,0,56.6,0,21,0,19.1,0
2003/5/2 14:15,26.7,0,33,0,22.8,0,56.9,0,21.1,0,19.1,0
2003/5/2 14:30,26.7,0,33,0,22.9,0,56.9,0,21.1,0,19.2,0
2003/5/2 14:45,27.2,0,31,0,23,0,57,0,21.1,0,19.2,0
2003/5/2 15:00,26.9,0,32,0,23,0,57,0,21.2,0,19.2,0
2003/5/2 15:15,26.7,0,32,0,23.1,0,57.1,0,21.2,0,19.3,0
2003/5/2 15:30,26.5,0,33,0,23.2,0,57.2,0,21.3,0,19.3,0
2003/5/2 15:45,26.2,0,32,0,23.3,0,57.3,0,21.3,0,19.4,0
2003/5/2 16:00,25.6,0,33,0,23.4,0,57.3,0,21.4,0,19.4,0
2003/5/2 16:15,25.5,0,34,0,23.5,0,57.4,0,21.4,0,19.4,0
2003/5/2 16:30,25,0,35,0,23.5,0,57.5,0,21.4,0,19.5,0
2003/5/2 16:45,24.9,0,35,0,23.6,0,57.5,0,21.4,0,19.5,0
2003/5/2 17:00,24.8,0,36,0,23.6,0,57.5,0,21.5,0,19.1,0
2003/5/2 17:15,24.5,0,36,0,23.6,0,57.4,0,21.5,0,19.1,0
2003/5/2 17:30,23.7,0,37,0,23.6,0,57.3,0,21.5,0,19.2,0
2003/5/2 17:45,23.7,0,37,0,23.6,0,57.1,0,21.6,0,19.2,0
2003/5/2 18:00,23.3,0,37,0,23.6,0,57,0,21.6,0,19.3,0
2003/5/2 18:15,22.9,0,38,0,23.6,0,56.9,0,21.6,0,18.9,0
2003/5/2 18:30,22.5,0,39,0,23.6,0,56.6,0,21.6,0,19,0
2003/5/2 18:45,22.2,0,40,0,23.6,0,56.4,0,21.6,0,19,0
2003/5/2 19:00,21.6,0,43,0,23.6,0,56.1,0,21.6,0,19.1,0
2003/5/2 19:15,20.9,0,45,0,23.7,0,56.2,0,21.6,0,19.1,0
2003/5/2 19:30,20.8,0,48,0,23.8,0,56.6,0,21.6,0,19.2,0
2003/5/2 19:45,20.5,0,49,0,23.9,0,56.6,0,21.6,0,19.2,0
2003/5/2 20:00,20.1,0,50,0,23.9,0,56.8,0,21.6,0,19.3,0
2003/5/2 20:15,19.9,0,50,0,24,0,56.6,0,21.6,0,19.3,0
2003/5/2 20:30,19.7,0,51,0,24,0,56.3,0,21.5,0,19.4,0
2003/5/2 20:45,19.7,0,52,0,24.1,0,56,0,21.5,0,19.4,0
2003/5/2 21:00,19.1,0,55,0,24.1,0,55.8,0,21.5,0,19.5,0
2003/5/2 21:15,18.5,0,58,0,24.1,0,54.9,0,21.5,0,19.5,0
2003/5/2 21:30,18.3,0,59,0,24.2,0,55.6,0,21.4,0,19.6,0
2003/5/2 21:45,18.4,0,60,0,24.2,0,56.2,0,21.4,0,18.9,0
2003/5/2 22:00,18.5,0,59,0,24.2,0,57.1,0,21.4,0,19,0
2003/5/2 22:15,18.7,0,59,0,24.3,0,58.5,0,21.4,0,19,0
2003/5/2 22:30,18.6,0,59,0,24.4,0,58.2,0,21.3,0,19.1,0
2003/5/2 22:45,18.5,0,60,0,24.5,0,58.7,0,21.3,0,19.1,0
2003/5/2 23:00,18.3,0,61,0,24.4,0,57.5,0,21.3,0,19.1,0
2003/5/2 23:15,18.4,0,61,0,24.3,0,57.9,0,21.3,0,19.2,0
2003/5/2 23:30,18.3,0,61,0,24.3,0,57.8,0,21.3,0,19.2,0
2003/5/2 23:45,18.2,0,62,0,24.2,0,58,0,21.2,0,19.3,0
2003/5/3 0:00,18,0,63,0,24.1,0,58.3,0,21.2,0,19.3,0
2003/5/3 0:15,18,0,64,0,24,0,58.1,0,21.2,0,19.4,0
2003/5/3 0:30,17.8,0,65,0,24,0,58.2,0,21.1,0,19.4,0
2003/5/3 0:45,17.4,0,66,0,23.9,0,57.7,0,21.1,0,19.4,0
2003/5/3 1:00,17.3,0,67,0,23.9,0,57.7,0,21.1,0,19.5,0
2003/5/3 1:15,17.1,0,68,0,23.8,0,57.6,0,21,0,19.5,0
2003/5/3 1:30,17.1,0,66,0,23.7,0,57.7,0,21,0,19.6,0
2003/5/3 1:45,17.2,0,64,0,23.6,0,57.7,0,21,0,19.6,0
2003/5/3 2:00,17.3,0,63,0,23.6,0,57.8,0,20.9,0,19.6,0
2003/5/3 2:15,17,0,64,0,23.5,0,58.1,0,20.9,0,19.7,0
2003/5/3 2:30,17,0,64,0,23.5,0,58,0,20.8,0,19.7,0
2003/5/3 2:45,16.9,0,66,0,23.4,0,58.1,0,20.8,0,19.7,0
2003/5/3 3:00,16.7,0,67,0,23.4,0,58.1,0,20.8,0,19.8,0
2003/5/3 3:15,16.6,0,67,0,23.3,0,57.8,0,20.7,0,19.8,0
2003/5/3 3:30,16.4,0,68,0,23.2,0,57.5,0,20.7,0,19.2,0
2003/5/3 3:45,15.9,0,71,0,23.2,0,57.9,0,20.7,0,19.3,0
2003/5/3 4:00,16,0,71,0,23.1,0,58.1,0,20.6,0,19.3,0
2003/5/3 4:15,15.5,0,73,0,23.1,0,58.2,0,20.6,0,19.3,0
2003/5/3 4:30,15.4,0,75,0,23,0,58.2,0,20.6,0,19.4,0
2003/5/3 4:45,15.5,0,74,0,22.9,0,58.3,0,20.5,0,19.4,0
2003/5/3 5:00,15,0,76,0,22.8,0,58.3,0,20.5,0,19.4,0
2003/5/3 5:15,15.4,0,75,0,22.8,0,58.3,0,20.4,0,19.4,0
2003/5/3 5:30,14.5,0,78,0,22.7,0,58.5,0,20.4,0,19.5,0
2003/5/3 5:45,14.8,0,78,0,22.6,0,58.4,0,20.4,0,19.5,0
2003/5/3 6:00,14.6,0,78,0,22.5,0,58.6,0,20.3,0,19.5,0
2003/5/3 6:15,15.3,0,75,0,22.4,0,58.3,0,20.3,0,19.1,0
2003/5/3 6:30,15.1,0,75,0,22.3,0,58.7,0,20.3,0,19.1,0
2003/5/3 6:45,15.6,0,73,0,22.3,0,59.2,0,20.3,0,19.3,0
2003/5/3 7:00,15.9,0,73,0,22.4,0,59.3,0,20.2,0,19.3,0
2003/5/3 7:15,16.2,0,72,0,22.4,0,59.2,0,20.3,0,19.3,0
2003/5/3 7:30,16.6,0,70,0,22.4,0,59,0,20.3,0,19,0
2003/5/3 7:45,17.3,0,67,0,22.5,0,59,0,20.4,0,19,0
2003/5/3 8:00,17.8,0,63,0,22.5,0,59,0,20.4,0,19,0
2003/5/3 8:15,18.7,0,61,0,22.6,0,59.2,0,20.5,0,19.1,0
2003/5/3 8:30,19.4,0,58,0,22.6,0,59.3,0,20.6,0,19.1,0
2003/5/3 8:45,20.3,0,54,0,22.7,0,59.3,0,20.7,0,19.1,0
2003/5/3 9:00,22,0,49,0,22.7,0,59.4,0,20.9,0,19.1,0
2003/5/3 9:15,24,0,44,0,22.8,0,59.4,0,21,0,19.2,0
2003/5/3 9:30,25.4,0,39,0,22.8,0,59.4,0,21.1,0,19.2,0
2003/5/3 9:45,26.7,0,36,0,22.9,0,59.5,0,21.2,0,19.2,0
2003/5/3 10:00,27.6,0,33,0,22.9,0,59.8,0,21.3,0,19.3,0
2003/5/3 10:15,27.7,0,32,0,23,0,60.1,0,21.4,0,19.3,0
2003/5/3 10:30,28.5,0,31,0,23.1,0,60,0,21.5,0,19.3,0
2003/5/3 10:45,28.6,0,26,0,23.2,0,60,0,21.6,0,19.4,0
2003/5/3 11:00,28.2,0,27,0,23.3,0,60,0,21.7,0,19,0
2003/5/3 11:15,29.8,0,25,0,23.3,0,59.8,0,21.8,0,18.9,0
2003/5/3 11:30,28.2,0,28,0,23.4,0,59.8,0,21.9,0,19,0
2003/5/3 11:45,27,0,27,0,23.4,0,59.8,0,22,0,19,0
2003/5/3 12:00,27.6,0,25,0,23.5,0,59.8,0,22.1,0,19.1,0
2003/5/3 12:15,27,0,25,0,23.6,0,60,0,22.1,0,19.1,0
2003/5/3 12:30,27.3,0,27,0,23.6,0,60,0,22.2,0,19.1,0
2003/5/3 12:45,27.2,0,28,0,23.7,0,59.9,0,22.2,0,19.2,0
2003/5/3 13:00,26.7,0,29,0,23.8,0,59.9,0,22.3,0,19.2,0
2003/5/3 13:15,26.7,0,30,0,23.9,0,59.6,0,22.3,0,19.1,0
2003/5/3 13:30,26.5,0,28,0,24,0,59.4,0,22.4,0,19.2,0
2003/5/3 13:45,26.6,0,28,0,24,0,59.1,0,22.4,0,19.2,0
2003/5/3 14:00,26.7,0,28,0,24.1,0,58.9,0,22.4,0,19.3,0
2003/5/3 14:15,27.1,0,27,0,24.2,0,58.7,0,22.5,0,19.2,0
2003/5/3 14:30,27.1,0,27,0,24.3,0,58.6,0,22.5,0,19.2,0
2003/5/3 14:45,27,0,27,0,24.4,0,58.3,0,22.5,0,19.1,0
2003/5/3 15:00,27.1,0,27,0,24.5,0,58.1,0,22.6,0,19.2,0
2003/5/3 15:15,27.2,0,26,0,24.5,0,58,0,22.6,0,19.3,0
2003/5/3 15:30,27.4,0,23,0,24.6,0,57.9,0,22.6,0,19.3,0
2003/5/3 15:45,27.2,0,22,0,24.7,0,58.3,0,22.7,0,19.4,0
2003/5/3 16:00,26.5,0,24,0,24.8,0,58.5,0,22.8,0,19.4,0
2003/5/3 16:15,26.9,0,23,0,24.9,0,58.6,0,22.8,0,19.5,0
2003/5/3 16:30,26.6,0,23,0,25.1,0,58.8,0,22.9,0,19.5,0
2003/5/3 16:45,26.2,0,24,0,25.2,0,59.2,0,22.9,0,19.6,0
2003/5/3 17:00,25.6,0,25,0,25.3,0,58.9,0,22.9,0,19.5,0
2003/5/3 17:15,25.2,0,27,0,25.3,0,59,0,23,0,19.5,0
2003/5/3 17:30,24.8,0,31,0,25.3,0,59,0,23,0,19.5,0
2003/5/3 17:45,24.3,0,34,0,25.3,0,59,0,23,0,19.6,0
2003/5/3 18:00,23.4,0,38,0,25.3,0,59,0,23.1,0,19.7,0
2003/5/3 18:15,23.2,0,39,0,25.3,0,59.1,0,23.1,0,19.7,0
2003/5/3 18:30,22.6,0,40,0,25.3,0,59,0,23.1,0,19.7,0
2003/5/3 18:45,22.2,0,42,0,25.4,0,58.6,0,23.1,0,19.8,0
2003/5/3 19:00,22,0,44,0,25.4,0,58.5,0,23.1,0,19.8,0
2003/5/3 19:15,21.3,0,47,0,25.5,0,58.2,0,23.1,0,19.4,0
2003/5/3 19:30,21.1,0,48,0,25.5,0,58.1,0,23.1,0,19.5,0
2003/5/3 19:45,21.2,0,47,0,25.5,0,58.5,0,23.1,0,19.5,0
2003/5/3 20:00,21.1,0,46,0,25.6,0,58.7,0,23.1,0,19.6,0
2003/5/3 20:15,21.2,0,46,0,25.6,0,58.3,0,23.1,0,19.2,0
2003/5/3 20:30,21,0,48,0,25.6,0,58.6,0,23,0,19.3,0
2003/5/3 20:45,20.1,0,50,0,25.6,0,58.3,0,23,0,19.3,0
2003/5/3 21:00,20.3,0,50,0,25.6,0,59,0,23,0,19.4,0
2003/5/3 21:15,20.6,0,51,0,25.7,0,58.4,0,22.9,0,19.4,0
2003/5/3 21:30,20.3,0,51,0,25.7,0,58.3,0,22.9,0,19.5,0
2003/5/3 21:45,20.2,0,52,0,25.7,0,58.1,0,22.9,0,19.5,0
2003/5/3 22:00,20,0,53,0,25.7,0,57.8,0,22.8,0,19.6,0
2003/5/3 22:15,20,0,54,0,25.7,0,57.8,0,22.8,0,19.4,0
2003/5/3 22:30,20,0,54,0,25.6,0,57.9,0,22.7,0,19.4,0
2003/5/3 22:45,19.9,0,55,0,25.6,0,57.9,0,22.7,0,19.5,0
2003/5/3 23:00,19.5,0,56,0,25.5,0,57.8,0,22.7,0,19.5,0
2003/5/3 23:15,19.3,0,57,0,25.4,0,58.3,0,22.6,0,19.6,0
2003/5/3 23:30,19.1,0,59,0,25.4,0,58.5,0,22.6,0,19.6,0
2003/5/3 23:45,19,0,61,0,25.3,0,58.3,0,22.5,0,19.7,0
2003/5/4 0:00,18.8,0,63,0,25.3,0,58.4,0,22.5,0,19.7,0
2003/5/4 0:15,18.9,0,60,0,25.2,0,58.5,0,22.5,0,19.8,0
2003/5/4 0:30,18.7,0,61,0,25.2,0,59.2,0,22.4,0,19.8,0
2003/5/4 0:45,18.7,0,61,0,25.1,0,58.8,0,22.4,0,19.8,0
2003/5/4 1:00,18.5,0,60,0,25,0,58.4,0,22.3,0,19.9,0
2003/5/4 1:15,18.4,0,59,0,24.9,0,58.1,0,22.3,0,19.6,0
2003/5/4 1:30,18.2,0,60,0,24.8,0,58.5,0,22.2,0,19.7,0
2003/5/4 1:45,18.1,0,60,0,24.7,0,58.2,0,22.2,0,19.7,0
2003/5/4 2:00,18.1,0,61,0,24.6,0,58.2,0,22.2,0,19.7,0
2003/5/4 2:15,17.5,0,65,0,24.5,0,57.9,0,22.1,0,19.8,0
2003/5/4 2:30,17.6,0,65,0,24.4,0,58.1,0,22.1,0,19.8,0
2003/5/4 2:45,17,0,65,0,24.3,0,58.3,0,22.1,0,19.9,0
2003/5/4 3:00,17,0,67,0,24.3,0,58.5,0,22,0,19.9,0
2003/5/4 3:15,17.5,0,64,0,24.2,0,58.9,0,22,0,19.9,0
2003/5/4 3:30,17.6,0,63,0,24.2,0,59.9,0,22,0,20,0
2003/5/4 3:45,17.3,0,63,0,24.2,0,60.1,0,21.9,0,20,0
2003/5/4 4:00,17.2,0,62,0,24.1,0,59.8,0,21.9,0,20.1,0
2003/5/4 4:15,17.2,0,62,0,24,0,59.7,0,21.9,0,20.1,0
2003/5/4 4:30,16.3,0,64,0,23.9,0,59.4,0,21.8,0,20.2,0
2003/5/4 4:45,16.7,0,63,0,23.8,0,59.6,0,21.8,0,20.2,0
2003/5/4 5:00,16.7,0,62,0,23.7,0,59.3,0,21.8,0,20.2,0
2003/5/4 5:15,16.7,0,60,0,23.6,0,59.1,0,21.7,0,20.3,0
2003/5/4 5:30,16.6,0,61,0,23.6,0,58.9,0,21.7,0,20.3,0
2003/5/4 5:45,16.8,0,61,0,23.5,0,58.8,0,21.6,0,20.3,0
2003/5/4 6:00,16.9,0,62,0,23.4,0,58.8,0,21.6,0,20.4,0
2003/5/4 6:15,16.5,0,62,0,23.3,0,58.6,0,21.5,0,20.4,0
2003/5/4 6:30,16.6,0,64,0,23.3,0,58.4,0,21.5,0,20.4,0
2003/5/4 6:45,17.3,0,62,0,23.2,0,58.6,0,21.5,0,20.5,0
2003/5/4 7:00,17.4,0,63,0,23.1,0,58.3,0,21.4,0,20.5,0
2003/5/4 7:15,17.9,0,61,0,23.1,0,58.3,0,21.4,0,20.5,0
2003/5/4 7:30,18.7,0,60,0,23,0,56.9,0,21.4,0,20.6,0
2003/5/4 7:45,19.4,0,57,0,22.7,0,54.9,0,21.2,0,20.6,0
2003/5/4 8:00,19,0,55,0,22.8,0,56.7,0,21.1,0,19.7,0
2003/5/4 8:15,20.1,0,52,0,22.9,0,56.9,0,21.1,0,19.4,0
2003/5/4 8:30,21.3,0,48,0,23,0,58,0,21.2,0,19.4,0
2003/5/4 8:45,21.6,0,45,0,23,0,57.9,0,21.3,0,19.5,0
2003/5/4 9:00,22.5,0,42,0,23.1,0,58.8,0,21.4,0,19.3,0
2003/5/4 9:15,23.2,0,37,0,23.1,0,58.1,0,21.5,0,19.4,0
2003/5/4 9:30,24.5,0,35,0,23.2,0,57.9,0,21.6,0,19.2,0
2003/5/4 9:45,24.9,0,34,0,23.3,0,57.5,0,21.7,0,19.3,0
2003/5/4 10:00,26.1,0,32,0,23.3,0,57,0,21.8,0,19.3,0
2003/5/4 10:15,27.4,0,31,0,23.4,0,57.4,0,21.9,0,19.4,0
2003/5/4 10:30,26.3,0,33,0,23.5,0,57.3,0,22,0,19.4,0
2003/5/4 10:45,26.7,0,32,0,23.5,0,57.9,0,22,0,19.5,0
2003/5/4 11:00,26.7,0,32,0,23.6,0,58.1,0,22.1,0,19.3,0
2003/5/4 11:15,27.6,0,32,0,23.7,0,58.4,0,22.1,0,19.4,0
2003/5/4 11:30,27.1,0,32,0,23.8,0,58.4,0,22.2,0,19.5,0
2003/5/4 11:45,27.5,0,30,0,23.8,0,58.5,0,22.3,0,19.5,0
2003/5/4 12:00,28.2,0,29,0,23.9,0,58.3,0,22.3,0,19.5,0
2003/5/4 12:15,27.6,0,30,0,24,0,57.9,0,22.4,0,19.6,0
2003/5/4 12:30,27.2,0,32,0,24.1,0,57.8,0,22.5,0,19.6,0
2003/5/4 12:45,27.1,0,33,0,24.1,0,57.8,0,22.5,0,19.4,0
2003/5/4 13:00,26.7,0,34,0,24.2,0,57.7,0,22.6,0,19.5,0
2003/5/4 13:15,26.1,0,34,0,24.3,0,57.7,0,22.6,0,19.5,0
2003/5/4 13:30,25.2,0,36,0,24.3,0,57.4,0,22.6,0,19.6,0
2003/5/4 13:45,24.8,0,35,0,24.3,0,56.7,0,22.7,0,19.6,0
2003/5/4 14:00,24.9,0,35,0,24.3,0,56.2,0,22.7,0,19.6,0
2003/5/4 14:15,23.8,0,34,0,24.3,0,55.8,0,22.7,0,19.4,0
2003/5/4 14:30,24.4,0,36,0,24.3,0,55.3,0,22.7,0,19.5,0
2003/5/4 14:45,23.9,0,38,0,24.3,0,55,0,22.7,0,19.5,0
2003/5/4 15:00,23.6,0,38,0,24.3,0,55.4,0,22.7,0,19.6,0
2003/5/4 15:15,23.3,0,43,0,24.3,0,55,0,22.7,0,19.6,0
2003/5/4 15:30,23.5,0,46,0,24.3,0,55.4,0,22.6,0,19.7,0
2003/5/4 15:45,23.1,0,44,0,24.3,0,55.3,0,22.6,0,19.7,0
2003/5/4 16:00,22.3,0,45,0,24.3,0,55.3,0,22.6,0,19.8,0
2003/5/4 16:15,22.2,0,50,0,24.3,0,55.2,0,22.6,0,19.8,0
2003/5/4 16:30,22,0,52,0,24.4,0,55.5,0,22.6,0,19.8,0
2003/5/4 16:45,21.9,0,54,0,24.4,0,55.9,0,22.5,0,19.9,0
2003/5/4 17:00,21.6,0,55,0,24.3,0,55.2,0,22.5,0,19.9,0
2003/5/4 17:15,21.2,0,57,0,24.3,0,55.4,0,22.5,0,19.5,0
2003/5/4 17:30,21.1,0,59,0,24.3,0,55.8,0,22.5,0,19.6,0
2003/5/4 17:45,20.7,0,60,0,24.3,0,55.7,0,22.5,0,19.6,0
2003/5/4 18:00,20.4,0,63,0,24.2,0,55.9,0,22.5,0,19.6,0
2003/5/4 18:15,20,0,68,0,24.3,0,56.5,0,22.4,0,19.6,0
2003/5/4 18:30,19.6,0,72,0,24.3,0,57,0,22.4,0,19.7,0
2003/5/4 18:45,19.4,0,74,0,24.3,0,57.7,0,22.4,0,19.6,0
2003/5/4 19:00,19.4,0,74,0,24.4,0,57.9,0,22.2,0,19.6,0
2003/5/4 19:15,19.4,0,74,0,=,2,=,2,22.2,0,19.7,0
2003/5/4 19:30,19.4,0,74,0,=,2,=,2,22.2,0,19.3,0
2003/5/4 19:45,=,2,=,2,=,2,=,2,22.2,0,19.4,0
2003/5/4 20:00,=,2,=,2,=,2,=,2,22.2,0,19.4,0
2003/5/4 20:15,=,2,=,2,=,2,=,2,22.2,0,19.5,0
2003/5/4 20:30,=,2,=,2,=,2,=,2,22.1,0,19.2,0
2003/5/4 20:45,=,2,=,2,=,2,=,2,22.1,0,19.2,0
2003/5/4 21:00,=,2,=,2,=,2,=,2,22.1,0,19.3,0
2003/5/4 21:15,=,2,=,2,=,2,=,2,22.2,0,19.4,0
2003/5/4 21:30,=,2,=,2,=,2,=,2,22.1,0,19.4,0
2003/5/4 21:45,=,2,=,2,=,2,=,2,22.1,0,19.5,0
2003/5/4 22:00,=,2,=,2,=,2,=,2,22.1,0,19.5,0
2003/5/4 22:15,=,2,=,2,=,2,=,2,22.1,0,19.6,0
2003/5/4 22:30,=,2,=,2,=,2,=,2,22,0,19.6,0
2003/5/4 22:45,=,2,=,2,=,2,=,2,22,0,19.7,0
2003/5/4 23:00,=,2,=,2,=,2,=,2,22,0,19.7,0
2003/5/4 23:15,=,2,=,2,=,2,=,2,22,0,19.7,0
2003/5/4 23:30,=,2,=,2,=,2,=,2,22,0,19.7,0
2003/5/4 23:45,=,2,=,2,=,2,=,2,22,0,19.8,0
2003/5/5 0:00,=,2,=,2,=,2,=,2,22,0,19.8,0
2003/5/5 0:15,=,2,=,2,=,2,=,2,22,0,19.9,0
2003/5/5 0:30,=,2,=,2,=,2,=,2,22,0,19.9,0
2003/5/5 0:45,=,2,=,2,=,2,=,2,22,0,19.9,0
2003/5/5 1:00,=,2,=,2,=,2,=,2,22,0,20,0
2003/5/5 1:15,=,2,=,2,=,2,=,2,22,0,20,0
2003/5/5 1:30,=,2,=,2,=,2,=,2,22,0,20.1,0
2003/5/5 1:45,=,2,=,2,=,2,=,2,22,0,19.6,0
2003/5/5 2:00,=,2,=,2,=,2,=,2,21.9,0,19.7,0
2003/5/5 2:15,=,2,=,2,=,2,=,2,21.9,0,19.7,0
2003/5/5 2:30,=,2,=,2,=,2,=,2,21.9,0,19.8,0
2003/5/5 2:45,=,2,=,2,=,2,=,2,21.9,0,19.8,0
2003/5/5 3:00,=,2,=,2,=,2,=,2,21.9,0,19.8,0
2003/5/5 3:15,=,2,=,2,=,2,=,2,21.8,0,19.9,0
2003/5/5 3:30,=,2,=,2,=,2,=,2,21.8,0,19.9,0
2003/5/5 3:45,=,2,=,2,=,2,=,2,21.8,0,20,0
2003/5/5 4:00,=,2,=,2,=,2,=,2,21.7,0,20,0
2003/5/5 4:15,=,2,=,2,=,2,=,2,21.7,0,20,0
2003/5/5 4:30,=,2,=,2,=,2,=,2,21.7,0,20.1,0
2003/5/5 4:45,=,2,=,2,=,2,=,2,21.7,0,20.1,0
2003/5/5 5:00,=,2,=,2,=,2,=,2,21.7,0,20.2,0
2003/5/5 5:15,=,2,=,2,=,2,=,2,21.7,0,20.2,0
2003/5/5 5:30,=,2,=,2,=,2,=,2,21.6,0,20.3,0
2003/5/5 5:45,=,2,=,2,=,2,=,2,21.6,0,20.3,0
2003/5/5 6:00,=,2,=,2,=,2,=,2,21.6,0,20.4,0
2003/5/5 6:15,=,2,=,2,=,2,=,2,21.6,0,20.4,0
2003/5/5 6:30,=,2,=,2,=,2,=,2,21.6,0,20.4,0
2003/5/5 6:45,=,2,=,2,=,2,=,2,21.6,0,20.5,0
2003/5/5 7:00,=,2,=,2,=,2,=,2,21.6,0,20.5,0
2003/5/5 7:15,=,2,=,2,=,2,=,2,21.6,0,20.5,0
2003/5/5 7:30,=,2,=,2,=,2,=,2,21.6,0,19.7,0
2003/5/5 7:45,=,2,=,2,=,2,=,2,21.6,0,19.6,0
2003/5/5 8:00,=,2,=,2,=,2,=,2,21.6,0,19.6,0
2003/5/5 8:15,=,2,=,2,=,2,=,2,21.6,0,19.7,0
2003/5/5 8:30,=,2,=,2,=,2,=,2,21.6,0,19.7,0
2003/5/5 8:45,=,2,=,2,=,2,=,2,21.6,0,19.7,0
2003/5/5 9:00,=,2,=,2,=,2,=,2,21.7,0,19.8,0
2003/5/5 9:15,=,2,=,2,=,2,=,2,21.8,0,19.8,0
2003/5/5 9:30,=,2,=,2,=,2,=,2,21.9,0,19.8,0
2003/5/5 9:45,=,2,=,2,=,2,=,2,22,0,19.6,0
2003/5/5 10:00,=,2,=,2,=,2,=,2,22.1,0,19.7,0
2003/5/5 10:15,=,2,=,2,=,2,=,2,22.2,0,19.7,0
2003/5/5 10:30,=,2,=,2,=,2,=,2,22.3,0,19.6,0
2003/5/5 10:45,=,2,=,2,=,2,=,2,22.4,0,19.7,0
2003/5/5 11:00,=,2,=,2,=,2,=,2,22.5,0,19.7,0
2003/5/5 11:15,=,2,=,2,=,2,=,2,22.6,0,19.7,0
2003/5/5 11:30,=,2,=,2,=,2,=,2,22.7,0,19.8,0
2003/5/5 11:45,=,2,=,2,=,2,=,2,22.8,0,19.5,0
2003/5/5 12:00,=,2,=,2,=,2,=,2,22.8,0,19.6,0
2003/5/5 12:15,=,2,=,2,=,2,=,2,22.9,0,19.6,0
2003/5/5 12:30,=,2,=,2,=,2,=,2,23,0,19.7,0
2003/5/5 12:45,=,2,=,2,=,2,=,2,23,0,19.6,0
2003/5/5 13:00,=,2,=,2,=,2,=,2,23.1,0,19.6,0
2003/5/5 13:15,=,2,=,2,=,2,=,2,23.1,0,19.7,0
2003/5/5 13:30,=,2,=,2,=,2,=,2,23.2,0,19.7,0
2003/5/5 13:45,=,2,=,2,=,2,=,2,23.2,0,19.5,0
2003/5/5 14:00,=,2,=,2,=,2,=,2,23.3,0,19.6,0
2003/5/5 14:15,=,2,=,2,=,2,=,2,23.3,0,19.6,0
2003/5/5 14:30,=,2,=,2,=,2,=,2,23.3,0,19.7,0
2003/5/5 14:45,=,2,=,2,=,2,=,2,23.3,0,19.7,0
2003/5/5 15:00,=,2,=,2,=,2,=,2,23.4,0,19.8,0
2003/5/5 15:15,=,2,=,2,=,2,=,2,23.4,0,19.8,0
2003/5/5 15:30,=,2,=,2,=,2,=,2,23.4,0,19.7,0
2003/5/5 15:45,=,2,=,2,=,2,=,2,23.4,0,19.7,0
2003/5/5 16:00,=,2,=,2,=,2,=,2,23.4,0,19.8,0
2003/5/5 16:15,=,2,=,2,=,2,=,2,23.4,0,19.8,0
2003/5/5 16:30,=,2,=,2,=,2,=,2,23.4,0,19.9,0
2003/5/5 16:45,=,2,=,2,=,2,=,2,23.5,0,19.9,0